Location: Zagreb
(45.8000°N, 16.0000°E)
Time: 01:05:48
(UTC+02:00)

Transit 2A Rocket - Pass Details

Date: 28 January 2022
Orbit: 592 x 909 km, 66.7° (Epoch: 26 May)

Event Time Altitude Azimuth Distance (km) Brightness Sun altitude
Rises 18:51:35 0° 231° (SW) 3,495 9.3 -20.2°
Reaches altitude 10° 18:54:10 10° 237° (WSW) 2,577 8.6 -20.6°
Maximum altitude 19:00:00 48° 311° (NW) 1,181 6.2 -21.6°
Enters shadow 19:04:54 15° 21° (NNE) 2,258 7.2 -22.5°
Drops below altitude 10° 19:05:50 10° 25° (NNE) 2,579 - -22.6°
Sets 19:08:26 0° 31° (NNE) 3,498 - -23.1°
